Date String (YYYY-MM-DD hh:mm:ss) UTC,Instrument flags,Ambient pressure (hPa),Sample flow (lpm),Bypass flow (lpm),Sample temperature (°C),Ambient temperature (°C),ASC tube jacket temperature (°C),LED temperature (°C),Box temperature (°C),Sample RH (%),Span deviation,Mass concentration (μg/m³),Mass concentration (μg/m³),Mass concentration (μg/m³)
DateTimeUTC,F1_M11,P_M11,Q1_M11,Q2_M11,T1_M11,T2_M11,T3_M11,T4_M11,T5_M11,U1_M11,ZSPAN_M11,X0_M11,X2_M11,X1_M11
2022-05-08 16:00:00,,0815.6,4.98,0.00,24.6,24.0,00.0,33.5,26.5,20.0,0000.0,0025.71,0009.60,0004.18
2022-05-08 16:01:00,,0815.6,5.01,0.00,24.6,24.0,00.0,33.5,26.5,19.8,0000.0,0025.44,0009.56,0004.18
2022-05-08 16:02:00,,0816.1,4.99,0.00,24.6,24.0,00.0,33.5,26.5,19.8,0000.0,0025.48,0009.55,0004.18
2022-05-08 16:03:00,,0816.0,5.01,0.00,24.6,24.0,00.0,33.5,26.5,20.1,0000.0,0025.49,0009.45,0004.15
2022-05-08 16:04:00,,0815.7,5.00,0.00,24.6,24.1,00.0,33.5,26.5,20.2,0000.0,0025.47,0009.51,0004.15
2022-05-08 16:05:00,,0815.8,5.00,0.00,24.6,24.1,00.0,33.5,26.5,19.9,0000.0,0025.25,0009.60,0004.16
2022-05-08 16:06:00,,0815.7,4.99,0.00,24.6,24.2,00.0,33.5,26.6,20.3,0000.2,0025.85,0009.68,0004.16
2022-05-08 16:07:00,,0815.6,5.00,0.00,24.7,24.2,00.0,33.5,26.6,20.1,0000.1,0026.32,0009.70,0004.16
2022-05-08 16:08:00,,0815.6,5.00,0.00,24.7,24.2,00.0,33.5,26.6,19.9,0000.0,0027.09,0009.80,0004.17
2022-05-08 16:09:00,,0815.7,4.99,0.00,24.7,24.2,00.0,33.6,26.6,19.8,-000.5,0027.89,0009.75,0004.18
2022-05-08 16:10:00,,0815.8,5.00,0.00,24.7,24.2,00.0,33.6,26.6,19.8,0000.0,0028.10,0009.67,0004.16
2022-05-08 16:11:00,,0816.1,5.01,0.00,24.7,24.2,00.0,33.6,26.6,19.9,0000.0,0028.25,0009.71,0004.15
2022-05-08 16:12:00,,0816.1,4.99,0.00,24.7,24.2,00.0,33.6,26.6,20.3,0000.0,0028.91,0009.80,0004.16
2022-05-08 16:13:00,,0815.9,5.01,0.00,24.7,24.2,00.0,33.6,26.7,20.5,0000.0,0028.75,0009.77,0004.16
2022-05-08 16:14:00,,0815.9,4.99,0.00,24.8,24.2,00.0,33.6,26.6,20.5,0000.0,0028.96,0009.73,0004.15
2022-05-08 16:15:00,,0815.8,5.00,0.00,24.8,24.2,00.0,33.6,26.6,20.3,0000.0,0030.55,0009.81,0004.17
2022-05-08 16:16:00,,0815.8,4.99,0.00,24.7,24.2,00.0,33.6,26.6,20.0,0000.0,0030.72,0009.73,0004.16
2022-05-08 16:17:00,,0815.5,4.99,0.00,24.7,24.2,00.0,33.6,26.6,20.1,0000.0,0030.96,0009.64,0004.15
2022-05-08 16:18:00,,0815.6,5.01,0.00,24.8,24.2,00.0,33.6,26.7,20.2,0000.0,0031.13,0009.65,0004.15
2022-05-08 16:19:00,,0816.0,5.00,0.00,24.8,24.2,00.0,33.7,26.7,20.4,0000.0,0030.59,0009.71,0004.15
2022-05-08 16:20:00,,0815.8,4.99,0.00,24.8,24.2,00.0,33.7,26.7,20.1,0000.0,0030.02,0009.81,0004.15
2022-05-08 16:21:00,,0815.3,4.99,0.00,24.8,24.2,00.0,33.7,26.7,19.9,0001.6,0029.63,0009.92,0004.16
2022-05-08 16:22:00,,0815.4,5.01,0.00,24.8,24.2,00.0,33.7,26.7,20.3,0002.8,0029.83,0009.95,0004.19
2022-05-08 16:23:00,,0815.3,4.98,0.00,24.8,24.3,00.0,33.7,26.7,20.9,0001.9,0031.06,0009.90,0004.20
2022-05-08 16:24:00,,0815.3,5.01,0.00,24.8,24.3,00.0,33.7,26.7,20.3,0001.5,0032.28,0009.88,0004.19
2022-05-08 16:25:00,,0815.3,5.00,0.00,24.8,24.3,00.0,33.7,26.7,20.1,0000.2,0033.46,0010.03,0004.20
2022-05-08 16:26:00,,0815.3,4.99,0.00,24.8,24.3,00.0,33.7,26.7,20.4,0000.1,0033.07,0010.02,0004.21
2022-05-08 16:27:00,,0815.3,5.01,0.00,24.9,24.3,00.0,33.7,26.7,21.2,-001.1,0032.89,0010.19,0004.23
2022-05-08 16:28:00,,0815.3,4.99,0.00,24.9,24.4,00.0,33.8,26.8,21.0,-001.2,0031.97,0010.14,0004.23
2022-05-08 16:29:00,,0815.2,5.01,0.00,24.9,24.4,00.0,33.8,26.8,20.8,-000.8,0032.05,0010.22,0004.24
2022-05-08 16:30:00,,0815.2,4.99,0.00,24.9,24.4,00.0,33.8,26.8,20.4,0000.0,0032.15,0010.20,0004.24
2022-05-08 16:31:00,,0815.3,5.01,0.00,24.9,24.4,00.0,33.8,26.8,20.2,-000.1,0031.67,0010.07,0004.23
2022-05-08 16:32:00,,0815.2,4.99,0.00,24.9,24.4,00.0,33.8,26.8,19.8,0000.0,0031.82,0010.00,0004.23
2022-05-08 16:33:00,,0815.2,5.01,0.00,25.0,24.5,00.0,33.8,26.8,19.7,-000.0,0032.54,0009.93,0004.22
2022-05-08 16:34:00,,0815.3,5.01,0.00,25.0,24.5,00.0,33.8,26.9,20.0,-000.0,0030.49,0009.89,0004.21
2022-05-08 16:35:00,,0815.1,4.98,0.00,25.0,24.5,00.0,33.8,26.9,19.9,0000.1,0029.46,0009.96,0004.20
2022-05-08 16:36:00,,0815.1,5.01,0.00,25.0,24.5,00.0,33.9,26.9,19.9,0000.9,0028.86,0009.88,0004.20
2022-05-08 16:37:00,,0815.1,5.01,0.00,25.0,24.5,00.0,33.9,26.9,20.2,0000.7,0027.66,0009.89,0004.18
2022-05-08 16:38:00,,0815.0,4.99,0.00,25.0,24.5,00.0,33.9,26.9,20.3,0001.7,0027.26,0009.77,0004.17
2022-05-08 16:39:00,,0815.1,5.01,0.00,25.0,24.5,00.0,33.9,26.9,20.4,0002.5,0027.69,0009.88,0004.17
2022-05-08 16:40:00,,0815.1,4.99,0.00,25.1,24.6,00.0,33.9,26.9,20.5,0001.5,0027.72,0009.85,0004.17
2022-05-08 16:41:00,,0815.1,5.01,0.00,25.1,24.6,00.0,33.9,27.0,20.6,0000.4,0027.74,0009.79,0004.16
2022-05-08 16:42:00,,0815.1,5.00,0.00,25.1,24.6,00.0,33.9,27.0,20.2,-000.3,0027.67,0009.89,0004.16
2022-05-08 16:43:00,,0815.0,4.98,0.00,25.1,24.6,00.0,33.9,27.0,19.5,-000.1,0028.01,0009.95,0004.16
2022-05-08 16:44:00,,0815.0,5.01,0.00,25.1,24.6,00.0,34.0,27.0,19.6,-000.3,0027.06,0010.00,0004.16
2022-05-08 16:45:00,,0815.0,5.00,0.00,25.1,24.6,00.0,34.0,27.1,20.2,0000.0,0027.44,0010.02,0004.16
2022-05-08 16:46:00,,0814.9,4.99,0.00,25.2,24.6,00.0,34.0,27.1,20.5,0000.0,0027.78,0009.96,0004.17
2022-05-08 16:47:00,,0814.9,5.02,0.00,25.2,24.7,00.0,34.0,27.1,20.1,0000.0,0027.65,0010.05,0004.16
2022-05-08 16:48:00,,0814.9,4.99,0.00,25.2,24.7,00.0,34.0,27.1,19.8,0000.0,0027.65,0010.02,0004.16
2022-05-08 16:49:00,,0815.1,5.00,0.00,25.2,24.7,00.0,34.0,27.2,20.1,0000.0,0027.67,0009.99,0004.15
2022-05-08 16:50:00,,0814.9,5.00,0.00,25.2,24.7,00.0,34.1,27.2,20.4,0000.0,0027.74,0009.94,0004.14
2022-05-08 16:51:00,,0814.9,4.99,0.00,25.3,24.7,00.0,34.1,27.2,20.0,0000.0,0028.32,0009.91,0004.13
2022-05-08 16:52:00,,0815.0,5.01,0.00,25.3,24.8,00.0,34.1,27.2,20.4,0000.0,0028.37,0010.13,0004.12
2022-05-08 16:53:00,,0814.9,5.00,0.00,25.3,24.8,00.0,34.1,27.3,20.0,0000.0,0028.23,0010.06,0004.10
2022-05-08 16:54:00,,0814.9,5.00,0.00,25.3,24.8,00.0,34.1,27.3,19.9,0000.0,0027.73,0010.00,0004.09
2022-05-08 16:55:00,,0814.9,5.01,0.00,25.3,24.8,00.0,34.1,27.3,19.5,0000.0,0027.79,0010.02,0004.08
2022-05-08 16:56:00,,0814.9,5.01,0.00,25.3,24.8,00.0,34.1,27.3,19.6,0000.0,0027.61,0009.93,0004.05
2022-05-08 16:57:00,,0814.8,4.99,0.00,25.4,24.8,00.0,34.2,27.3,19.7,0000.0,0027.68,0010.03,0004.05
2022-05-08 16:58:00,,0814.8,5.01,0.00,25.4,24.9,00.0,34.2,27.3,19.8,0000.0,0028.01,0010.08,0004.04
2022-05-08 16:59:00,,0814.7,5.01,0.00,25.4,24.9,00.0,34.2,27.3,19.4,0000.0,0029.17,0010.04,0004.03
